{"data":{"norad_id":67395,"epoch":"2026-09-20T12:22:03.735264Z","epoch_age_seconds":99064,"freshness":"FRESH","line1":"1 67395U 26004AJ  26263.51532101  .00000411  00000+0  50480-4 0  9995","line2":"2 67395  97.8110 260.7320 0005590 159.3014 200.8430 14.88205085 37457","mean_motion":14.88205085,"eccentricity":0.000559,"inclination_deg":97.811,"raan_deg":260.732,"arg_perigee_deg":159.3014,"mean_anomaly_deg":200.843,"bstar":5.048e-5,"rev_number":3745,"period_min":96.760857392179,"perigee_km":599.64097769418,"apogee_km":607.4464967584,"semimajor_km":6981.6807372263,"source":"CELESTRAK","updated_at":"2026-09-21T09:00:16.600044Z"}}